{"data":{"norad_id":66324,"epoch":"2026-05-25T00:43:15.588192Z","epoch_age_seconds":72686,"freshness":"FRESH","line1":"1 66324U 25253F   26145.03004153  .00016221  00000+0  59733-3 0  9993","line2":"2 66324  42.9940 141.0389 0000502 244.9240 115.1559 15.27598180 31927","mean_motion":15.2759818,"eccentricity":5.02e-5,"inclination_deg":42.994,"raan_deg":141.0389,"arg_perigee_deg":244.924,"mean_anomaly_deg":115.1559,"bstar":0.00059733,"rev_number":3192,"period_min":94.265626841739,"perigee_km":482.65023031003,"apogee_km":483.33908792861,"semimajor_km":6861.1316591193,"source":"CELESTRAK","updated_at":"2026-05-25T13:38:21.167537Z"}}